[[{"header":{"parameterUnit":"m.s-1","parameterCategory":1,"la1":30.2991,"la2":30.254,"lo1":-89.0895,"lo2":-89.0444,"dy":0.0017,"dx":0.0017,"nx":28,"ny":28,"refTime":"2025-05-16T03:00:00:Z","depth":0,"parameterNumber":2,"parameterNumberName":"U-component_of_WINDS"},"data":[0,0,0,0,0,0,0,0,0,0,0,0,0,0,0,0,0,0,0,0,0,0,0,0,0,0,0,0,0,0,0,0,0,0,0,0,0,0,0,0,0,0,0,0,0,0,0,0,0,0,0,0,0,0,0,0,0,0,0.273,0.2732,0,0.2942,0.2945,0.2947,0.3036,0.3036,0.3035,0.3035,0.3256,0.3262,0.3269,0,0,0,0,0,0,0,0,0,0,0,0,0,0.2404,0.2409,0.2729,0.2732,0.2735,0.2942,0.2945,0.2948,0.3036,0.3036,0.3035,0.3035,0.3254,0.3262,0.3269,0,0,0,0,0,0,0,0,0,0,0,0,0,0.2574,0.2411,0.2729,0.2804,0.2813,0.2941,0.2945,0.2949,0.3036,0.3036,0.3035,0.3034,0.3252,0.3261,0.327,0.3341,0,0,0.3299,0.3303,0,0,0,0,0,0,0,0,0.2564,0.2586,0.279,0.2799,0.2809,0.2962,0.2911,0.308,0.3037,0.2952,0.3035,0.3034,0.3159,0.3176,0.3218,0.3352,0.3361,0.33,0.3306,0.331,0.3312,0,0,0,0,0,0,0,0.2552,0.2577,0.2814,0.2793,0.2805,0.2828,0.2852,0.2944,0.3056,0.2959,0.2966,0.299,0.3164,0.3208,0.3223,0.3365,0.33,0.3308,0.3314,0.3318,0.357,0.3571,0,0,0,0,0,0,0.2528,0.2567,0.2807,0.282,0.2682,0.2834,0.2861,0.2914,0.3056,0.3077,0.299,0.2993,0.3192,0.3212,0.3232,0.3326,0.331,0.3318,0.3324,0.3569,0.3571,0.3572,0,0,0,0,0,0,0.252,0.2548,0.2799,0.2696,0.2729,0.2841,0.2899,0.2918,0.2962,0.3079,0.31,0.3014,0.3193,0.3218,0.3314,0.3335,0.3323,0.3331,0.3568,0.357,0.3571,0.3514,0,0,0,0,0,0,0.2511,0.2545,0.2572,0.2695,0.2734,0.2876,0.2901,0.2923,0.2978,0.2984,0.3107,0.3127,0.3194,0.3299,0.3323,0.3348,0.3339,0.3567,0.3569,0.3571,0.3515,0.3513,0.3512,0,0,0,0,0,0.2499,0.2548,0.2573,0.2602,0.277,0.2877,0.2899,0.2974,0.2979,0.3008,0.3084,0.3123,0.3328,0.3308,0.3336,0.3364,0.3566,0.3568,0.3571,0.3515,0.3514,0.3513,0,0,0,0,0,0,0.2425,0.2565,0.2595,0.2685,0.2768,0.2891,0.293,0.297,0.3054,0.3057,0.3147,0.3174,0.3263,0.3323,0.3298,0.3441,0.345,0.3458,0.3399,0.3398,0.3397,0.3382,0.3347,0,0,0,0,0,0.2419,0.2493,0.2612,0.268,0.272,0.2818,0.2867,0.2918,0.3008,0.3044,0.3126,0.3213,0.3297,0.3351,0.3435,0.3523,0.3553,0.3556,0.3555,0.3554,0.356,0.3613,0.3617,0.3579,0.3579,0.3579,0,0,0.2408,0.2494,0.2535,0.2668,0.2738,0.2813,0.2847,0.2925,0.2983,0.3056,0.3151,0.3214,0.3318,0.341,0.3455,0.3463,0.3577,0.3557,0.3555,0.3562,0.3616,0.3619,0.3622,0.3581,0.3581,0.3581,0,0,0.2427,0.2498,0.2564,0.2634,0.274,0.2805,0.282,0.2938,0.2982,0.3079,0.3136,0.3207,0.3349,0.3421,0.3476,0.3523,0.3563,0.3548,0.3543,0.3594,0.3597,0.36,0.3618,0.3624,0.3553,0.3553,0.3553,0,0.24,0.2515,0.2593,0.2669,0.2726,0.2795,0.2863,0.2928,0.3055,0.3094,0.3101,0.3282,0.3357,0.3468,0.3479,0.3521,0.3543,0.3535,0.359,0.3594,0.3598,0.3616,0.3623,0.3551,0.3551,0.3551,0.3552,0,0.2478,0.2557,0.2598,0.2719,0.2781,0.2852,0.2942,0.2996,0.3041,0.3106,0.3204,0.3296,0.34,0.343,0.3475,0.3548,0.355,0.3572,0.3583,0.3597,0.3617,0.3624,0.3547,0.3548,0.3549,0.3549,0,0,0.2457,0.2621,0.2635,0.2691,0.2813,0.2877,0.2952,0.3053,0.3098,0.3184,0.3251,0.337,0.3392,0.3454,0.3508,0.3552,0.3586,0.3569,0.3573,0.3571,0.3674,0.3658,0.3665,0.3612,0.3614,0.3615,0.3666,0,0.2494,0.263,0.2703,0.281,0.2885,0.2952,0.3018,0.31,0.3163,0.3237,0.3306,0.339,0.3411,0.3449,0.3496,0.3571,0.3608,0.3569,0.3677,0.368,0.3651,0.3675,0.3658,0.3701,0.3674,0.3675,0.3676,0,0.2555,0.2639,0.2753,0.2868,0.2903,0.296,0.306,0.3129,0.3225,0.3267,0.3337,0.339,0.3474,0.3478,0.3595,0.3567,0.3616,0.3659,0.3663,0.3678,0.368,0.3691,0.3716,0.3723,0.3688,0.3687,0.3686,0,0.253,0.2672,0.276,0.2806,0.2942,0.2981,0.304,0.3135,0.3191,0.3279,0.3317,0.3412,0.3465,0.3539,0.3617,0.3613,0.3728,0.3738,0.3767,0.3765,0.3789,0.3787,0.3824,0.3818,0.3817,0.3817,0.3817,0,0.2564,0.2631,0.275,0.2804,0.2882,0.2966,0.3041,0.3105,0.3189,0.3258,0.3322,0.3385,0.3484,0.356,0.3621,0.371,0.3733,0.3771,0.3787,0.3767,0.3762,0.3801,0.3801,0.3819,0.3819,0.3818,0.3818,0,0.255,0.2632,0.2732,0.2852,0.2884,0.2936,0.304,0.3096,0.3161,0.3247,0.3272,0.3376,0.3469,0.3554,0.3677,0.3719,0.3809,0.3829,0.3777,0.3786,0.3811,0.3808,0.3876,0.389,0.3871,0.3871,0.3871,0,0.2566,0.262,0.2746,0.2797,0.2854,0.2934,0.2992,0.3076,0.3135,0.3249,0.3291,0.3388,0.347,0.3616,0.3703,0.3798,0.3821,0.3838,0.3836,0.3814,0.3824,0.382,0.3827,0.3838,0.3837,0.3837,0.3837,0,0.2589,0.2627,0.2708,0.2804,0.2871,0.2951,0.3033,0.307,0.3171,0.3233,0.3329,0.3392,0.3518,0.3615,0.372,0.3782,0.3827,0.3837,0.3849,0.3829,0.3798,0.3817,0.3776,0.3835,0.3836,0.3836,0.3836,0.3836,0.2592,0.2644,0.2741,0.283,0.29,0.2975,0.3034,0.3107,0.3187,0.3296,0.3341,0.3438,0.3535,0.3681,0.3742,0.382,0.383,0.3847,0.3852,0.3855,0.3852,0.3784,0.384,0.384,0.384,0.384,0.384,0,0.2619,0.2685,0.2766,0.2878,0.2948,0.2983,0.3076,0.3133,0.3217,0.3303,0.3383,0.3493,0.3587,0.3681,0.3781,0.3826,0.3849,0.3849,0.3848,0.3862,0.3837,0.3817,0.3829,0.3829,0.3829,0.3829,0.3829,0.3829,0.2641,0.2731,0.2781,0.2906,0.2973,0.3068,0.3118,0.3188,0.3257,0.3378,0.3456,0.3516,0.3606,0.3713,0.3801,0.3827,0.3861,0.3856,0.3887,0.3863,0.3863,0.3863,0.3845,0.3863,0.3863,0.3906,0.3907,0.3907]},{"header":{"parameterUnit":"m.s-1","parameterCategory":1,"la1":30.2991,"la2":30.254,"lo1":-89.0895,"lo2":-89.0444,"dy":0.0017,"dx":0.0017,"nx":28,"ny":28,"refTime":"2025-05-16T03:00:00:Z","depth":0,"parameterNumber":3,"parameterNumberName":"V-component_of_WINDS"},"data":[0,0,0,0,0,0,0,0,0,0,0,0,0,0,0,0,0,0,0,0,0,0,0,0,0,0,0,0,0,0,0,0,0,0,0,0,0,0,0,0,0,0,0,0,0,0,0,0,0,0,0,0,0,0,0,0,0,0,4.7518,4.7518,0,4.7571,4.7571,4.7572,4.7565,4.7565,4.7564,4.7563,4.7611,4.7613,4.7615,0,0,0,0,0,0,0,0,0,0,0,0,0,4.7405,4.7407,4.7518,4.7518,4.7519,4.7571,4.7571,4.7572,4.7566,4.7564,4.7563,4.7563,4.761,4.7613,4.7615,0,0,0,0,0,0,0,0,0,0,0,0,0,4.7455,4.7408,4.7517,4.7522,4.7523,4.757,4.7571,4.7572,4.7566,4.7564,4.7563,4.7562,4.761,4.7613,4.7616,4.766,0,0,4.7625,4.7626,0,0,0,0,0,0,0,0,4.7452,4.7459,4.7521,4.7522,4.7523,4.756,4.7549,4.7601,4.7566,4.7549,4.7563,4.7561,4.7595,4.7599,4.7611,4.7662,4.7664,4.7625,4.7627,4.7629,4.7629,0,0,0,0,0,0,0,4.7449,4.7457,4.7538,4.7522,4.7523,4.752,4.7525,4.7559,4.7578,4.7551,4.755,4.7557,4.7595,4.7609,4.7613,4.7665,4.7625,4.7628,4.763,4.7631,4.7756,4.7757,0,0,0,0,0,0,4.7445,4.7454,4.7537,4.754,4.7484,4.7523,4.7529,4.7549,4.7578,4.7581,4.7558,4.7557,4.7604,4.7609,4.7614,4.7669,4.7629,4.7631,4.7633,4.7754,4.7756,4.7758,0,0,0,0,0,0,4.7443,4.7453,4.7535,4.7497,4.7507,4.7526,4.7549,4.7551,4.7565,4.7584,4.7586,4.7569,4.7603,4.761,4.7649,4.7671,4.7633,4.7636,4.7753,4.7755,4.7757,4.7779,0,0,0,0,0,0,4.744,4.7452,4.747,4.7498,4.7509,4.7571,4.755,4.7553,4.7571,4.7569,4.7594,4.7597,4.7603,4.7645,4.7652,4.7674,4.7638,4.7751,4.7754,4.7756,4.7777,4.7782,4.7786,0,0,0,0,0,4.7436,4.7473,4.7471,4.7481,4.7533,4.7572,4.7578,4.7586,4.7573,4.7591,4.7603,4.7596,4.7667,4.7649,4.7657,4.7681,4.7749,4.7753,4.7756,4.7774,4.7781,4.7786,0,0,0,0,0,0,4.7444,4.7476,4.7475,4.7522,4.7545,4.7571,4.7594,4.7592,4.7617,4.7614,4.762,4.7626,4.7666,4.7677,4.7656,4.7726,4.7706,4.7711,4.7717,4.7724,4.7728,4.7725,4.7641,0,0,0,0,0,4.7452,4.7483,4.7508,4.7548,4.7559,4.7575,4.7592,4.7596,4.7618,4.7627,4.7642,4.7662,4.7689,4.7707,4.7732,4.7778,4.7783,4.7798,4.7803,4.7807,4.7811,4.7837,4.7844,4.7768,4.7768,4.7768,0,0,4.7468,4.7489,4.7508,4.755,4.7568,4.7599,4.7582,4.7615,4.7637,4.7631,4.7671,4.7682,4.7705,4.7748,4.7768,4.7759,4.7833,4.7811,4.7814,4.7816,4.7841,4.7848,4.7855,4.7771,4.777,4.777,0,0,4.7513,4.7532,4.7568,4.7587,4.7615,4.7625,4.7634,4.766,4.7669,4.7709,4.7705,4.773,4.7776,4.7794,4.7808,4.7861,4.7856,4.7869,4.7894,4.792,4.7926,4.7931,4.7951,4.7958,4.7873,4.7873,4.7873,0,4.7529,4.7577,4.7586,4.762,4.7639,4.7637,4.7672,4.7689,4.7723,4.7735,4.7725,4.7784,4.7799,4.7847,4.786,4.7871,4.7881,4.7866,4.7924,4.793,4.7935,4.7954,4.7961,4.7875,4.7874,4.7874,4.7874,0,4.7595,4.7628,4.7653,4.769,4.7711,4.7745,4.7758,4.7778,4.778,4.7791,4.7831,4.785,4.788,4.7891,4.7892,4.7939,4.7933,4.7923,4.7904,4.7944,4.7962,4.7969,4.7877,4.7876,4.7876,4.7875,0,0,4.7647,4.769,4.7699,4.7716,4.7747,4.7772,4.7806,4.7838,4.7855,4.7878,4.7907,4.7946,4.7938,4.7955,4.7958,4.798,4.8022,4.7967,4.7968,4.7978,4.8076,4.8084,4.8093,4.8019,4.802,4.8021,4.8074,0,4.7696,4.776,4.7769,4.7824,4.7855,4.7854,4.7884,4.7905,4.7916,4.7942,4.7953,4.7982,4.7968,4.7979,4.8,4.8012,4.8042,4.8008,4.8045,4.8046,4.8041,4.8102,4.811,4.816,4.8081,4.8083,4.8083,0,4.7763,4.7791,4.785,4.7879,4.7892,4.7919,4.795,4.7975,4.7999,4.8005,4.8025,4.8025,4.8059,4.8038,4.8085,4.8062,4.8077,4.8085,4.8087,4.8091,4.8068,4.8109,4.8176,4.8184,4.8094,4.8093,4.8093,0,4.7797,4.7849,4.7892,4.7907,4.7941,4.796,4.7974,4.7997,4.8016,4.8042,4.8054,4.8082,4.8098,4.8119,4.8127,4.811,4.8173,4.8152,4.8179,4.8179,4.8193,4.8192,4.8265,4.8201,4.8201,4.82,4.82,0,4.7852,4.7888,4.7909,4.7935,4.7975,4.7985,4.8024,4.8037,4.8058,4.8086,4.8085,4.8111,4.8119,4.8145,4.8151,4.8189,4.8196,4.8201,4.8202,4.8202,4.8202,4.8213,4.821,4.8202,4.8202,4.8202,4.8201,0,4.7897,4.7912,4.7959,4.7988,4.7997,4.8025,4.8049,4.8074,4.8085,4.812,4.8128,4.8145,4.8176,4.8186,4.8222,4.8226,4.8272,4.8269,4.8265,4.8265,4.8292,4.829,4.8375,4.8387,4.8314,4.8314,4.8315,0,4.7932,4.7961,4.7994,4.8014,4.8031,4.8062,4.8082,4.8092,4.8113,4.8143,4.8164,4.8195,4.8222,4.8271,4.8285,4.8314,4.8312,4.834,4.8316,4.8316,4.8314,4.8313,4.8317,4.8345,4.8346,4.8346,4.8347,0,4.7993,4.8,4.803,4.8064,4.8089,4.8115,4.8139,4.8155,4.8168,4.8191,4.8225,4.8245,4.8285,4.8316,4.8345,4.8358,4.8355,4.8354,4.8362,4.8363,4.836,4.8363,4.8278,4.8352,4.8352,4.8351,4.8351,4.8351,4.8035,4.8062,4.809,4.8124,4.8144,4.8168,4.8194,4.8208,4.8237,4.8272,4.8275,4.8312,4.8334,4.8374,4.8388,4.8416,4.8407,4.8418,4.8421,4.8424,4.8428,4.8355,4.842,4.842,4.842,4.842,4.842,0,4.8098,4.8116,4.8148,4.8184,4.8211,4.8208,4.8235,4.8257,4.829,4.8313,4.834,4.8378,4.8409,4.8426,4.8456,4.8475,4.8474,4.8482,4.8482,4.8485,4.8432,4.8423,4.8483,4.8483,4.8483,4.8483,4.8483,4.8483,4.8133,4.8178,4.8188,4.8242,4.8259,4.8297,4.8314,4.8335,4.8354,4.8398,4.8425,4.8436,4.8456,4.8488,4.8516,4.852,4.8531,4.8541,4.8544,4.8495,4.8488,4.8482,4.8474,4.8543,4.8543,4.8595,4.8595,4.8595]}]]